Check out our new BloomSky Weather System.

Active alerts


No alerts


Thunder radar  blitzortung!


Rain radar more information rain snow radar


Visit our other weather sites:

Template documentation
and downloads

And another site



Weather Underground History page Text

Daily Summary for November 16, 2017 Units:  English    Metric   Both
« Previous Day
Next Day »
Daily Weekly Monthly Yearly Custom
  High: Low: Average:
Temperature: TemperatureF °F 69.3 °F 73.1 °F
Dew Point: DewpointF °F 67.5 °F 68.6 °F
Humidity: Humidity % 67 % 86 %
Wind Speed: WindSpeedMPH mph 0.0 mph 2.2 mph
Wind Gust: WindSpeedGustMPH mph - -
Wind:- - SSE
Pressure: PressureIn in 30.00 in -
Precipitation: 0.00 in    
Historical Graphs
 
 
Tabular Data for November 16, 2017
Time Temperature Dew Point Pressure Wind Wind Speed Wind Gust Humidity Rainfall Rate (Hourly)
TemperatureF °F DewpointF °F PressureIn in Calm     Humidity % HourlyPrecipIn in
00:03 70.9 °F 67.8 °F 30.06 in Calm   2.0 mph 90 % 0.00 in
00:09 70.9 °F 67.8 °F 30.06 in Calm   2.0 mph 90 % 0.00 in
00:14 70.7 °F 67.6 °F 30.06 in Calm   2.0 mph 90 % 0.00 in
00:19 70.5 °F 67.5 °F 30.06 in Calm   1.0 mph 90 % 0.00 in
00:24 70.5 °F 67.8 °F 30.06 in Calm   1.0 mph 91 % 0.00 in
00:29 70.5 °F 67.8 °F 30.06 in Calm   1.0 mph 91 % 0.00 in
00:34 70.5 °F 67.8 °F 30.06 in Calm   1.0 mph 91 % 0.00 in
00:39 70.3 °F 67.6 °F 30.05 in Calm   1.0 mph 91 % 0.00 in
00:44 70.3 °F 67.6 °F 30.06 in ESE 1.0 mph 1.0 mph 91 % 0.00 in
00:49 70.3 °F 67.8 °F 30.05 in SE 2.0 mph 2.0 mph 92 % 0.00 in
00:54 70.3 °F 67.8 °F 30.05 in Calm   3.0 mph 92 % 0.00 in
00:59 70.3 °F 67.8 °F 30.06 in Calm   3.0 mph 92 % 0.00 in
01:04 70.3 °F 67.8 °F 30.06 in Calm   3.0 mph 92 % 0.00 in
01:09 70.2 °F 67.6 °F 30.05 in Calm   2.0 mph 92 % 0.00 in
01:14 70.2 °F 67.6 °F 30.05 in Calm   1.0 mph 92 % 0.00 in
01:19 70.2 °F 67.6 °F 30.05 in Calm   1.0 mph 92 % 0.00 in
01:24 70.0 °F 67.8 °F 30.05 in Calm   1.0 mph 93 % 0.00 in
01:29 70.0 °F 67.8 °F 30.05 in Calm   1.0 mph 93 % 0.00 in
01:34 70.0 °F 67.8 °F 30.05 in Calm   1.0 mph 93 % 0.00 in
01:39 69.8 °F 67.6 °F 30.05 in Calm   1.0 mph 93 % 0.00 in
01:44 69.8 °F 68.0 °F 30.05 in Calm     94 % 0.00 in
01:49 69.6 °F 67.8 °F 30.05 in Calm   1.0 mph 94 % 0.00 in
01:54 69.6 °F 67.8 °F 30.05 in Calm   1.0 mph 94 % 0.00 in
01:57 69.6 °F 67.8 °F 30.05 in Calm   1.0 mph 94 % 0.00 in
02:02 69.4 °F 67.6 °F 30.05 in Calm   1.0 mph 94 % 0.00 in
02:07 69.4 °F 67.6 °F 30.05 in Calm   1.0 mph 94 % 0.00 in
02:12 69.4 °F 68.0 °F 30.05 in ESE 1.0 mph 1.0 mph 95 % 0.00 in
02:17 69.4 °F 68.0 °F 30.05 in Calm   2.0 mph 95 % 0.00 in
02:22 69.4 °F 68.0 °F 30.05 in Calm   2.0 mph 95 % 0.00 in
02:27 69.4 °F 68.0 °F 30.05 in Calm   2.0 mph 95 % 0.00 in
02:32 69.4 °F 68.0 °F 30.05 in Calm   1.0 mph 95 % 0.00 in
02:42 69.4 °F 68.0 °F 30.04 in Calm   1.0 mph 95 % 0.00 in
02:47 69.4 °F 68.2 °F 30.04 in Calm   3.0 mph 96 % 0.00 in
02:52 69.4 °F 68.2 °F 30.05 in Calm   3.0 mph 96 % 0.00 in
02:58 69.4 °F 68.2 °F 30.05 in Calm   3.0 mph 96 % 0.00 in
03:03 69.4 °F 68.2 °F 30.05 in NE 1.0 mph 2.0 mph 96 % 0.00 in
03:08 69.4 °F 68.2 °F 30.05 in Calm   2.0 mph 96 % 0.00 in
03:13 69.4 °F 68.2 °F 30.06 in Calm   2.0 mph 96 % 0.00 in
03:18 69.4 °F 68.2 °F 30.05 in Calm   2.0 mph 96 % 0.00 in
03:23 69.4 °F 68.2 °F 30.05 in Calm   2.0 mph 96 % 0.00 in
03:28 69.4 °F 68.2 °F 30.05 in Calm   1.0 mph 96 % 0.00 in
03:33 69.4 °F 68.2 °F 30.06 in Calm   1.0 mph 96 % 0.00 in
03:38 69.4 °F 68.2 °F 30.05 in Calm   1.0 mph 96 % 0.00 in
03:43 69.4 °F 68.2 °F 30.06 in Calm   1.0 mph 96 % 0.00 in
03:48 69.4 °F 68.2 °F 30.06 in Calm   1.0 mph 96 % 0.00 in
03:53 69.3 °F 68.0 °F 30.06 in Calm   1.0 mph 96 % 0.00 in
03:58 69.3 °F 68.0 °F 30.06 in Calm     96 % 0.00 in
04:03 69.4 °F 68.2 °F 30.06 in Calm   1.0 mph 96 % 0.00 in
04:08 69.4 °F 68.2 °F 30.06 in Calm   1.0 mph 96 % 0.00 in
04:13 69.4 °F 68.5 °F 30.06 in Calm   1.0 mph 97 % 0.00 in
04:18 69.4 °F 68.5 °F 30.06 in Calm   2.0 mph 97 % 0.00 in
04:23 69.4 °F 68.5 °F 30.06 in Calm   2.0 mph 97 % 0.00 in
04:28 69.4 °F 68.5 °F 30.06 in Calm   2.0 mph 97 % 0.00 in
04:33 69.3 °F 68.4 °F 30.06 in Calm   1.0 mph 97 % 0.00 in
04:38 69.3 °F 68.4 °F 30.06 in Calm   1.0 mph 97 % 0.00 in
04:43 69.3 °F 68.4 °F 30.06 in SE 1.0 mph 1.0 mph 97 % 0.00 in
04:48 69.3 °F 68.4 °F 30.06 in SE 1.0 mph 2.0 mph 97 % 0.00 in
04:53 69.3 °F 68.4 °F 30.06 in Calm   2.0 mph 97 % 0.00 in
04:58 69.3 °F 68.4 °F 30.06 in Calm   2.0 mph 97 % 0.00 in
05:03 69.3 °F 68.4 °F 30.06 in Calm   2.0 mph 97 % 0.00 in
05:08 69.3 °F 68.4 °F 30.06 in Calm   2.0 mph 97 % 0.00 in
05:13 69.3 °F 68.4 °F 30.06 in Calm   1.0 mph 97 % 0.00 in
05:19 69.3 °F 68.4 °F 30.06 in Calm   1.0 mph 97 % 0.00 in
05:24 69.3 °F 68.4 °F 30.06 in Calm   1.0 mph 97 % 0.00 in
05:29 69.3 °F 68.4 °F 30.06 in Calm   1.0 mph 97 % 0.00 in
05:34 69.3 °F 68.4 °F 30.06 in Calm   1.0 mph 97 % 0.00 in
05:39 69.3 °F 68.4 °F 30.06 in Calm   1.0 mph 97 % 0.00 in
05:44 69.3 °F 68.4 °F 30.06 in Calm   1.0 mph 97 % 0.00 in
05:49 69.3 °F 68.4 °F 30.06 in SE 1.0 mph 1.0 mph 97 % 0.00 in
05:54 69.3 °F 68.4 °F 30.06 in SE 1.0 mph 2.0 mph 97 % 0.00 in
05:59 69.3 °F 68.4 °F 30.06 in Calm   2.0 mph 97 % 0.00 in
06:04 69.3 °F 68.7 °F 30.06 in Calm   2.0 mph 98 % 0.00 in
06:09 69.3 °F 68.7 °F 30.06 in Calm   2.0 mph 98 % 0.00 in
06:14 69.3 °F 68.7 °F 30.06 in Calm   2.0 mph 98 % 0.00 in
06:19 69.3 °F 68.7 °F 30.06 in Calm   2.0 mph 98 % 0.00 in
06:24 69.3 °F 68.7 °F 30.07 in SE 1.0 mph 1.0 mph 98 % 0.00 in
06:29 69.3 °F 68.7 °F 30.07 in Calm   2.0 mph 98 % 0.00 in
06:34 69.3 °F 68.7 °F 30.08 in Calm   3.0 mph 98 % 0.00 in
06:39 69.4 °F 68.9 °F 30.08 in Calm   3.0 mph 98 % 0.00 in
06:44 69.4 °F 68.9 °F 30.08 in Calm   3.0 mph 98 % 0.00 in
06:49 69.4 °F 68.9 °F 30.08 in Calm   2.0 mph 98 % 0.00 in
06:54 69.4 °F 68.9 °F 30.08 in Calm   2.0 mph 98 % 0.00 in
07:04 69.4 °F 68.9 °F 30.09 in ESE 1.0 mph 1.0 mph 98 % 0.00 in
07:09 69.4 °F 68.9 °F 30.09 in ESE 1.0 mph 2.0 mph 98 % 0.00 in
07:14 69.4 °F 68.9 °F 30.09 in Calm   2.0 mph 98 % 0.00 in
07:19 69.4 °F 68.9 °F 30.09 in Calm   2.0 mph 98 % 0.00 in
07:24 69.4 °F 68.9 °F 30.09 in ESE 1.0 mph 1.0 mph 98 % 0.00 in
07:29 69.6 °F 69.1 °F 30.09 in Calm   1.0 mph 98 % 0.00 in
07:34 69.6 °F 69.1 °F 30.09 in Calm   1.0 mph 98 % 0.00 in
07:39 69.8 °F 69.3 °F 30.09 in Calm   1.0 mph 98 % 0.00 in
07:44 69.8 °F 69.3 °F 30.09 in Calm   1.0 mph 98 % 0.00 in
07:49 70.0 °F 69.4 °F 30.09 in ESE 3.0 mph 3.0 mph 98 % 0.00 in
07:54 70.0 °F 69.4 °F 30.09 in Calm   3.0 mph 98 % 0.00 in
07:59 70.2 °F 69.6 °F 30.09 in SSE 2.0 mph 3.0 mph 98 % 0.00 in
08:04 70.2 °F 69.6 °F 30.09 in East 1.0 mph 3.0 mph 98 % 0.00 in
08:09 70.2 °F 69.6 °F 30.09 in Calm   5.0 mph 98 % 0.00 in
08:14 70.3 °F 69.4 °F 30.09 in SE 2.0 mph 5.0 mph 97 % 0.00 in
08:19 70.7 °F 69.8 °F 30.09 in Calm   5.0 mph 97 % 0.00 in
08:24 70.9 °F 70.0 °F 30.10 in ENE 1.0 mph 4.0 mph 97 % 0.00 in
08:29 71.1 °F 70.2 °F 30.10 in Calm   3.0 mph 97 % 0.00 in
08:34 71.2 °F 70.3 °F 30.10 in SSW 1.0 mph 3.0 mph 97 % 0.00 in
08:44 71.4 °F 70.2 °F 30.10 in ENE 1.0 mph 3.0 mph 96 % 0.00 in
08:49 71.8 °F 70.3 °F 30.10 in SE 2.0 mph 3.0 mph 95 % 0.00 in
08:54 71.8 °F 70.3 °F 30.10 in SSE 1.0 mph 5.0 mph 95 % 0.00 in
09:00 72.1 °F 70.7 °F 30.10 in ESE 3.0 mph 6.0 mph 95 % 0.00 in
09:05 72.5 °F 71.1 °F 30.10 in ESE 3.0 mph 6.0 mph 95 % 0.00 in
09:10 72.7 °F 70.5 °F 30.10 in East 4.0 mph 5.0 mph 93 % 0.00 in
09:15 72.9 °F 70.7 °F 30.10 in SE 2.0 mph 5.0 mph 93 % 0.00 in
09:20 73.0 °F 70.5 °F 30.11 in SSW 3.0 mph 6.0 mph 92 % 0.00 in
09:25 73.6 °F 71.1 °F 30.11 in South 3.0 mph 6.0 mph 92 % 0.00 in
09:30 73.9 °F 70.9 °F 30.11 in ESE 4.0 mph 6.0 mph 90 % 0.00 in
09:35 73.9 °F 70.9 °F 30.11 in South 3.0 mph 5.0 mph 90 % 0.00 in
09:40 74.5 °F 71.4 °F 30.11 in ESE 5.0 mph 7.0 mph 90 % 0.00 in
09:45 74.8 °F 70.7 °F 30.11 in SE 6.0 mph 9.0 mph 87 % 0.00 in
09:50 75.2 °F 71.1 °F 30.11 in SSE 5.0 mph 9.0 mph 87 % 0.00 in
09:55 75.4 °F 71.2 °F 30.11 in South 3.0 mph 9.0 mph 87 % 0.00 in
10:00 75.7 °F 70.9 °F 30.11 in SSW 4.0 mph 9.0 mph 85 % 0.00 in
10:05 76.3 °F 70.7 °F 30.11 in South 4.0 mph 8.0 mph 83 % 0.00 in
10:10 76.3 °F 70.7 °F 30.11 in ESE 3.0 mph 8.0 mph 83 % 0.00 in
10:15 76.3 °F 71.1 °F 30.10 in ESE 3.0 mph 8.0 mph 84 % 0.00 in
10:21 76.5 °F 71.2 °F 30.10 in SE 4.0 mph 7.0 mph 84 % 0.00 in
10:26 76.6 °F 71.1 °F 30.10 in ESE 4.0 mph 7.0 mph 83 % 0.00 in
10:31 76.8 °F 70.9 °F 30.09 in East 5.0 mph 9.0 mph 82 % 0.00 in
10:36 76.8 °F 70.9 °F 30.09 in South 6.0 mph 9.0 mph 82 % 0.00 in
10:41 76.8 °F 70.9 °F 30.09 in SE 2.0 mph 9.0 mph 82 % 0.00 in
10:46 76.8 °F 70.2 °F 30.09 in SE 4.0 mph 8.0 mph 80 % 0.00 in
10:51 77.2 °F 70.5 °F 30.09 in SSE 2.0 mph 7.0 mph 80 % 0.00 in
10:56 77.7 °F 71.4 °F 30.09 in SSW 2.0 mph 7.0 mph 81 % 0.00 in
11:01 78.4 °F 70.7 °F 30.09 in South 3.0 mph 9.0 mph 77 % 0.00 in
11:06 78.4 °F 69.8 °F 30.09 in SW 6.0 mph 9.0 mph 75 % 0.00 in
11:11 78.1 °F 70.0 °F 30.09 in South 2.0 mph 10.0 mph 76 % 0.00 in
11:16 78.1 °F 70.3 °F 30.09 in SSW 4.0 mph 10.0 mph 77 % 0.00 in
11:21 77.7 °F 69.6 °F 30.09 in South 1.0 mph 10.0 mph 76 % 0.00 in
11:26 77.7 °F 70.0 °F 30.08 in South 1.0 mph 7.0 mph 77 % 0.00 in
11:31 77.5 °F 70.2 °F 30.08 in SW 4.0 mph 7.0 mph 78 % 0.00 in
11:36 77.5 °F 70.2 °F 30.08 in SSE 3.0 mph 5.0 mph 78 % 0.00 in
11:41 77.7 °F 70.0 °F 30.07 in South 3.0 mph 7.0 mph 77 % 0.00 in
11:46 77.7 °F 69.6 °F 30.07 in SW 5.0 mph 7.0 mph 76 % 0.00 in
11:51 77.7 °F 69.6 °F 30.07 in SSW 2.0 mph 8.0 mph 76 % 0.00 in
11:56 77.7 °F 70.0 °F 30.06 in SE 2.0 mph 8.0 mph 77 % 0.00 in
12:01 77.7 °F 69.6 °F 30.06 in SW 5.0 mph 8.0 mph 76 % 0.00 in
12:06 78.1 °F 70.0 °F 30.06 in SSW 2.0 mph 6.0 mph 76 % 0.00 in
12:11 78.3 °F 70.0 °F 30.06 in South 2.0 mph 5.0 mph 76 % 0.00 in
12:16 78.4 °F 69.8 °F 30.06 in SE 2.0 mph 5.0 mph 75 % 0.00 in
12:21 78.4 °F 69.8 °F 30.05 in SE 3.0 mph 6.0 mph 75 % 0.00 in
12:26 78.6 °F 70.0 °F 30.05 in SE 2.0 mph 6.0 mph 75 % 0.00 in
12:31 79.2 °F 70.2 °F 30.05 in SW 3.0 mph 6.0 mph 74 % 0.00 in
12:36 79.5 °F 70.9 °F 30.05 in SSE 3.0 mph 6.0 mph 75 % 0.00 in
12:41 80.1 °F 69.8 °F 30.05 in South 4.0 mph 8.0 mph 71 % 0.00 in
12:46 80.1 °F 69.8 °F 30.04 in SSE 3.0 mph 9.0 mph 71 % 0.00 in
12:51 79.9 °F 69.3 °F 30.04 in SE 3.0 mph 9.0 mph 70 % 0.00 in
12:56 80.1 °F 69.8 °F 30.04 in East 4.0 mph 9.0 mph 71 % 0.00 in
13:01 79.9 °F 68.7 °F 30.04 in SSE 2.0 mph 7.0 mph 69 % 0.00 in
13:06 80.2 °F 69.1 °F 30.03 in NE 2.0 mph 7.0 mph 69 % 0.00 in
13:11 80.8 °F 70.2 °F 30.03 in SSW 6.0 mph 7.0 mph 70 % 0.00 in
13:16 81.0 °F 68.9 °F 30.03 in South 3.0 mph 8.0 mph 67 % 0.00 in
13:21 80.8 °F 68.7 °F 30.03 in South 5.0 mph 9.0 mph 67 % 0.00 in
13:26 80.4 °F 68.5 °F 30.02 in SSW 3.0 mph 9.0 mph 67 % 0.00 in
13:31 80.4 °F 69.3 °F 30.02 in East 2.0 mph 9.0 mph 69 % 0.00 in
13:36 80.4 °F 69.3 °F 30.02 in ESE 6.0 mph 8.0 mph 69 % 0.00 in
13:41 80.2 °F 68.7 °F 30.02 in South 4.0 mph 7.0 mph 68 % 0.00 in
13:46 79.9 °F 69.3 °F 30.02 in South 4.0 mph 7.0 mph 70 % 0.00 in
13:51 79.9 °F 69.3 °F 30.02 in South 2.0 mph 7.0 mph 70 % 0.00 in
13:56 80.1 °F 69.4 °F 30.02 in South 2.0 mph 6.0 mph 70 % 0.00 in
14:01 80.2 °F 69.1 °F 30.01 in SSE 4.0 mph 5.0 mph 69 % 0.00 in
14:06 80.2 °F 69.1 °F 30.01 in SW 4.0 mph 8.0 mph 69 % 0.00 in
14:11 80.2 °F 69.1 °F 30.01 in SE 4.0 mph 9.0 mph 69 % 0.00 in
14:16 80.4 °F 68.9 °F 30.01 in South 5.0 mph 9.0 mph 68 % 0.00 in
14:21 80.8 °F 69.3 °F 30.00 in SE 4.0 mph 9.0 mph 68 % 0.00 in
14:26 80.4 °F 68.9 °F 30.00 in SSE 7.0 mph 8.0 mph 68 % 0.00 in
14:31 80.6 °F 69.4 °F 30.00 in Calm   8.0 mph 69 % 0.00 in
14:36 80.8 °F 69.3 °F 30.00 in ESE 5.0 mph 8.0 mph 68 % 0.00 in
14:41 80.4 °F 69.3 °F 30.00 in SSE 8.0 mph 8.0 mph 69 % 0.00 in
14:46 80.2 °F 69.6 °F 30.00 in SE 2.0 mph 9.0 mph 70 % 0.00 in
14:51 80.2 °F 69.6 °F 30.00 in SSE 2.0 mph 9.0 mph 70 % 0.00 in
14:56 80.1 °F 69.8 °F 30.00 in SE 1.0 mph 9.0 mph 71 % 0.00 in
15:01 79.9 °F 69.6 °F 30.00 in SE 5.0 mph 8.0 mph 71 % 0.00 in
15:06 79.2 °F 69.3 °F 30.00 in ESE 4.0 mph 11.0 mph 72 % 0.00 in
15:11 79.0 °F 69.6 °F 30.00 in SE 5.0 mph 11.0 mph 73 % 0.00 in
15:16 78.6 °F 69.3 °F 30.00 in West 4.0 mph 11.0 mph 73 % 0.00 in
15:21 78.4 °F 69.1 °F 30.00 in ESE 4.0 mph 10.0 mph 73 % 0.00 in
15:26 78.3 °F 68.9 °F 30.01 in SE 4.0 mph 10.0 mph 73 % 0.00 in
15:31 78.3 °F 68.9 °F 30.00 in SW 2.0 mph 10.0 mph 73 % 0.00 in
15:36 78.3 °F 68.9 °F 30.00 in SE 5.0 mph 9.0 mph 73 % 0.00 in
15:41 78.1 °F 68.7 °F 30.00 in SE 5.0 mph 9.0 mph 73 % 0.00 in
15:46 77.7 °F 68.0 °F 30.00 in SE 4.0 mph 10.0 mph 72 % 0.00 in
15:51 77.7 °F 68.4 °F 30.00 in ESE 6.0 mph 10.0 mph 73 % 0.00 in
15:56 77.5 °F 68.2 °F 30.00 in SSE 9.0 mph 10.0 mph 73 % 0.00 in
16:01 77.5 °F 68.2 °F 30.00 in East 5.0 mph 10.0 mph 73 % 0.00 in
16:06 77.5 °F 68.5 °F 30.00 in South 5.0 mph 11.0 mph 74 % 0.00 in
16:11 77.4 °F 68.9 °F 30.00 in SE 10.0 mph 11.0 mph 75 % 0.00 in
16:16 77.4 °F 68.9 °F 30.00 in SSE 6.0 mph 11.0 mph 75 % 0.00 in
16:21 77.2 °F 68.7 °F 30.00 in South 5.0 mph 10.0 mph 75 % 0.00 in
16:26 77.2 °F 69.1 °F 30.00 in SE 5.0 mph 10.0 mph 76 % 0.00 in
16:31 77.2 °F 69.1 °F 30.00 in South 2.0 mph 8.0 mph 76 % 0.00 in
16:36 77.2 °F 69.1 °F 30.01 in SSE 5.0 mph 8.0 mph 76 % 0.00 in
16:41 77.2 °F 69.1 °F 30.01 in SSE 3.0 mph 10.0 mph 76 % 0.00 in
16:46 77.2 °F 69.1 °F 30.01 in SSE 2.0 mph 10.0 mph 76 % 0.00 in
16:51 77.0 °F 68.9 °F 30.01 in SSE 6.0 mph 10.0 mph 76 % 0.00 in
16:56 76.6 °F 68.5 °F 30.00 in East 6.0 mph 9.0 mph 76 % 0.00 in
17:01 76.6 °F 68.9 °F 30.01 in SSE 7.0 mph 8.0 mph 77 % 0.00 in
17:06 76.5 °F 68.7 °F 30.01 in ESE 3.0 mph 9.0 mph 77 % 0.00 in
17:11 76.3 °F 68.9 °F 30.01 in East 7.0 mph 9.0 mph 78 % 0.00 in
17:16 75.9 °F 68.5 °F 30.01 in ESE 4.0 mph 9.0 mph 78 % 0.00 in
17:21 75.9 °F 68.5 °F 30.00 in SSE 8.0 mph 8.0 mph 78 % 0.00 in
17:26 75.7 °F 68.4 °F 30.01 in South 5.0 mph 8.0 mph 78 % 0.00 in
17:31 75.6 °F 68.5 °F 30.01 in SSE 4.0 mph 8.0 mph 79 % 0.00 in
17:36 75.4 °F 68.4 °F 30.01 in SSE 4.0 mph 10.0 mph 79 % 0.00 in
17:46 75.0 °F 68.4 °F 30.01 in SE 2.0 mph 10.0 mph 80 % 0.00 in
17:51 74.8 °F 68.2 °F 30.01 in SSE 3.0 mph 9.0 mph 80 % 0.00 in
17:56 74.7 °F 68.0 °F 30.01 in SSE 4.0 mph 9.0 mph 80 % 0.00 in
18:01 74.7 °F 68.0 °F 30.01 in SSE 4.0 mph 9.0 mph 80 % 0.00 in
18:06 74.5 °F 67.8 °F 30.01 in SSE 4.0 mph 9.0 mph 80 % 0.00 in
18:11 74.5 °F 68.2 °F 30.01 in SSE 2.0 mph 6.0 mph 81 % 0.00 in
18:16 74.3 °F 68.0 °F 30.01 in SE 2.0 mph 7.0 mph 81 % 0.00 in
18:21 74.1 °F 68.0 °F 30.01 in SSE 6.0 mph 7.0 mph 81 % 0.00 in
18:26 74.1 °F 68.0 °F 30.01 in SE 3.0 mph 8.0 mph 81 % 0.00 in
18:31 73.9 °F 67.8 °F 30.01 in SW 2.0 mph 8.0 mph 81 % 0.00 in
18:36 73.9 °F 67.8 °F 30.02 in ESE 3.0 mph 8.0 mph 81 % 0.00 in
18:41 73.9 °F 68.2 °F 30.02 in SSE 3.0 mph 7.0 mph 82 % 0.00 in
18:46 73.8 °F 68.0 °F 30.02 in SSE 2.0 mph 7.0 mph 82 % 0.00 in
18:51 73.8 °F 68.0 °F 30.02 in ENE 3.0 mph 7.0 mph 82 % 0.00 in
18:56 73.8 °F 68.4 °F 30.02 in ESE 2.0 mph 7.0 mph 83 % 0.00 in
19:01 73.6 °F 68.2 °F 30.03 in SSE 2.0 mph 7.0 mph 83 % 0.00 in
19:06 73.6 °F 68.2 °F 30.03 in SE 4.0 mph 6.0 mph 83 % 0.00 in
19:11 73.6 °F 68.2 °F 30.03 in SE 3.0 mph 7.0 mph 83 % 0.00 in
19:16 73.6 °F 68.4 °F 30.03 in SE 5.0 mph 7.0 mph 84 % 0.00 in
19:21 73.4 °F 68.2 °F 30.04 in SE 2.0 mph 7.0 mph 84 % 0.00 in
19:26 73.4 °F 68.5 °F 30.04 in South 3.0 mph 9.0 mph 85 % 0.00 in
19:31 73.6 °F 68.7 °F 30.04 in SSE 3.0 mph 9.0 mph 85 % 0.00 in
19:36 73.6 °F 68.7 °F 30.04 in South 7.0 mph 9.0 mph 85 % 0.00 in
19:41 73.6 °F 68.7 °F 30.04 in SSE 1.0 mph 8.0 mph 85 % 0.00 in
19:47 73.4 °F 68.5 °F 30.04 in SSW 2.0 mph 8.0 mph 85 % 0.00 in
19:52 73.2 °F 68.7 °F 30.04 in SE 3.0 mph 8.0 mph 86 % 0.00 in
19:57 73.2 °F 68.7 °F 30.04 in SE 3.0 mph 6.0 mph 86 % 0.00 in
20:02 73.0 °F 68.5 °F 30.04 in SE 3.0 mph 8.0 mph 86 % 0.00 in
20:07 73.0 °F 68.5 °F 30.04 in SE 3.0 mph 8.0 mph 86 % 0.00 in
20:12 72.9 °F 68.7 °F 30.04 in SE 4.0 mph 8.0 mph 87 % 0.00 in
20:17 72.9 °F 68.7 °F 30.04 in SE 4.0 mph 7.0 mph 87 % 0.00 in
20:22 72.9 °F 68.7 °F 30.04 in SSE 5.0 mph 7.0 mph 87 % 0.00 in
20:27 72.7 °F 68.5 °F 30.05 in East 3.0 mph 7.0 mph 87 % 0.00 in
20:32 72.7 °F 68.9 °F 30.05 in South 3.0 mph 7.0 mph 88 % 0.00 in
20:37 72.5 °F 68.7 °F 30.05 in South 3.0 mph 7.0 mph 88 % 0.00 in
20:42 72.5 °F 68.7 °F 30.05 in SE 4.0 mph 7.0 mph 88 % 0.00 in
20:47 72.5 °F 68.7 °F 30.05 in SSE 2.0 mph 8.0 mph 88 % 0.00 in
20:53 72.3 °F 68.5 °F 30.05 in SE 1.0 mph 8.0 mph 88 % 0.00 in
20:58 72.3 °F 68.5 °F 30.05 in SSE 2.0 mph 8.0 mph 88 % 0.00 in
21:03 72.3 °F 68.5 °F 30.05 in Calm   6.0 mph 88 % 0.00 in
21:08 72.1 °F 68.4 °F 30.05 in SE 1.0 mph 6.0 mph 88 % 0.00 in
21:13 72.1 °F 68.7 °F 30.05 in South 2.0 mph 6.0 mph 89 % 0.00 in
21:18 72.0 °F 68.5 °F 30.05 in SSE 2.0 mph 4.0 mph 89 % 0.00 in
21:22 71.8 °F 68.4 °F 30.05 in East 3.0 mph 4.0 mph 89 % 0.00 in
21:25 71.8 °F 68.4 °F 30.05 in ESE 2.0 mph 4.0 mph 89 % 0.00 in
21:26 71.8 °F 68.4 °F 30.05 in SE 1.0 mph 4.0 mph 89 % 0.00 in
21:28 71.6 °F 68.2 °F 30.05 in East 4.0 mph 4.0 mph 89 % 0.00 in
21:33 71.4 °F 68.4 °F 30.05 in ESE 4.0 mph 7.0 mph 90 % 0.00 in
21:35 71.4 °F 68.4 °F 30.05 in SE 3.0 mph 7.0 mph 90 % 0.00 in
21:40 71.2 °F 68.2 °F 30.05 in SSE 1.0 mph 7.0 mph 90 % 0.00 in
21:45 71.2 °F 68.2 °F 30.05 in SE 2.0 mph 5.0 mph 90 % 0.00 in
21:51 71.1 °F 68.0 °F 30.05 in South 1.0 mph 5.0 mph 90 % 0.00 in
21:56 71.1 °F 68.4 °F 30.05 in South 3.0 mph 5.0 mph 91 % 0.00 in
22:01 70.9 °F 68.2 °F 30.04 in ESE 1.0 mph 5.0 mph 91 % 0.00 in
22:06 70.5 °F 67.8 °F 30.04 in SSE 2.0 mph 4.0 mph 91 % 0.00 in
22:11 70.3 °F 67.8 °F 30.04 in SE 1.0 mph 4.0 mph 92 % 0.00 in
22:16 70.3 °F 67.8 °F 30.04 in ESE 2.0 mph 4.0 mph 92 % 0.00 in
22:21 70.2 °F 67.6 °F 30.04 in ESE 1.0 mph 4.0 mph 92 % 0.00 in
22:26 70.0 °F 67.5 °F 30.04 in SE 1.0 mph 3.0 mph 92 % 0.00 in
22:31 70.0 °F 67.8 °F 30.04 in SSE 1.0 mph 4.0 mph 93 % 0.00 in
22:36 69.8 °F 67.6 °F 30.04 in ESE 3.0 mph 4.0 mph 93 % 0.00 in
22:41 69.8 °F 67.6 °F 30.04 in ESE 4.0 mph 4.0 mph 93 % 0.00 in
22:46 69.6 °F 67.5 °F 30.04 in East 1.0 mph 4.0 mph 93 % 0.00 in
22:51 69.6 °F 67.8 °F 30.04 in ESE 1.0 mph 5.0 mph 94 % 0.00 in
22:56 69.6 °F 67.8 °F 30.04 in SSE 1.0 mph 5.0 mph 94 % 0.00 in
23:06 69.6 °F 67.8 °F 30.04 in SE 1.0 mph 5.0 mph 94 % 0.00 in
23:11 69.8 °F 68.0 °F 30.04 in SE 2.0 mph 5.0 mph 94 % 0.00 in
23:16 69.8 °F 68.0 °F 30.04 in SE 3.0 mph 5.0 mph 94 % 0.00 in
23:21 69.6 °F 67.8 °F 30.04 in ESE 1.0 mph 5.0 mph 94 % 0.00 in
23:26 69.6 °F 67.8 °F 30.04 in South 1.0 mph 4.0 mph 94 % 0.00 in
23:31 69.6 °F 67.8 °F 30.04 in SSE 3.0 mph 4.0 mph 94 % 0.00 in
23:36 69.6 °F 67.8 °F 30.04 in SE 2.0 mph 4.0 mph 94 % 0.00 in
23:41 69.4 °F 67.6 °F 30.04 in SE 3.0 mph 5.0 mph 94 % 0.00 in
23:46 69.4 °F 68.0 °F 30.04 in Calm   5.0 mph 95 % 0.00 in
23:51 69.4 °F 68.0 °F 30.03 in SSE 2.0 mph 5.0 mph 95 % 0.00 in
23:56 69.3 °F 67.8 °F 30.03 in SSE 1.0 mph 5.0 mph 95 % 0.00 in
Spring, Texas: Villages of Bridgestone
Compliments of Weather Underground - 2.75 mb

Script developed by  Jim McMurry - jmcmurry@mwt.net Adapted for the template by  Wim van der Kuil - Leuven-Template.eu

You find our weather info also at:

UK Metoffice

WeatherCloud

Weather Underground

Mid-South Weather Network

AWEKAS

Citizen Weather Observer Program (CWOP)

HAMweather, WeatherForYou, PWS Weather

Equipment we use:

Weather-station
Davis Vantage Vue

Weather-program
Meteohub

Weather-server
Debian 7.9 x86 (Guest)

Provider
DreamHost

Davis Vantage Vue

Meteohub

Debian 7.9 x86 (Guest)

DreamHost